Terminal Aerodrome Forecast
Issued by NWS

Home | Current Version | Previous Version | Text Only | Print | Product List | Glossary On
Versions: 1 2 3 4 5 6 7 8 9 10 11 12 13 14 15 16 17 18 19 20 21 22 23 24 25 26 27 28 29 30 31 32 33 34 35
558
FTUS41 KBUF 032328
TAFJHW
TAF
KJHW 032328Z 0400/0424 VRB03KT P6SM BKN025
     FM040400 VRB03KT P6SM SCT025
     FM040800 VRB03KT 2SM BR BKN007
     FM041100 VRB03KT P6SM BKN025
     FM041400 17005KT P6SM BKN060
     FM041900 03008KT P6SM VCSH BKN035
      AMD LTD TO CLD VIS AND WIND=

USA.gov is the U.S. government's official web portal to all federal, state and local government web resources and services.